STARLINK-11679

Satellite information

Favourite Embed

Satellite Type and Status

PAYLOADIN ORBIT

Key statistics

Satellite STARLINK-11679 at a glance.

Uptime

203

Days in orbit

Revolutions

≈ 15.7

Per day

Orbit

LEO

Low Earth Orbit

Inclination

43.0

Latest

Satellite identification and parameters

Extended collection of information and parameters for STARLINK-11679.

Object identification

Identified? True

Debris? False

Object name: STARLINK-11679

International designator: 2025-111G

Object number (NORAD): 64129

Object ID (CCSDS): 64129

Country: UNITED STATES OF AMERICA (US)

Current information (Y/N): Y

RCS size: LARGE

Orbital parameters

Period: 91.663 minutes

Inclination: 43.0009 deg

SMA: 6734.261 km

Apoapsis: 357.686 km

Periapsis: 354.567 km

RAAN: 141.2675 deg

Eccentricy: 0.00023162

Argument of periapsis: 297.1887 deg

Mean anomaly: 62.8744 deg

Mean motion: 15.7096969 rev/day

Mean motion (dot): 0.00251162 rev/day2

B* drag term: 0.0018919468 1/REarth

Two-line elements (TLE)

Creation date: Dec. 12, 2025, 10:14 a.m.

Reference frame: TEME

Reference center: EARTH

Epoch: Dec. 12, 2025, 3:28 a.m. UTC

TLE line 0: 0 STARLINK-11679

TLE line 1: 1 64129U 25111G 25346.14485676 .00251162 00000-0 18919-2 0 9990

TLE line 2: 2 64129 43.0009 141.2675 0002316 297.1887 62.8744 15.70969690 32873

Live tracking on map

Real-time ground track for satellite STARLINK-11679.

In-orbit conjunctions

There are no conjunctions computed for STARLINK-11679, at the moment. Check back to stay up to date, as we update our databases every day.

Go to all conjunctions

Associated space launch

A batch of 23 satellites for the Starlink mega-constellation - SpaceX's project for space-based Internet communication system.

STARLINK-11679 was lifted into orbit during the mission ‘Falcon 9 Block 5 | Starlink Group 12-22’, on board a Falcon 9 space rocket.

The launch took place on May 24, 2025, 5:19 p.m. from Space Launch Complex 40.

For more information about the launch, click the button.

Launch to space Falcon 9 Block 5 | Starlink Group 12-22
Falcon 9 Block 5 | Starlink Group 12-22

Agency: SpaceX

Status: Launch Successful

Launch date: May 24, 2025, 5:19 p.m. UTC

Rocket: Falcon 9

Launch pad: Space Launch Complex 40

Location: Cape Canaveral SFS, FL, USA

...

Latest news about this satellite

News about space launch
Launch Roundup: SpaceX to start new Starlink shell; China, Russia to launch unknown payloads

This week, SpaceX will begin building a new shell for its Starlink constellation, launching from… The post Launch Roundup: SpaceX to start new Starlink shell; China, Russia to launch unknown payloads appeared first on NASASpaceFlight.com.


Newsletter sign-up

Weekly statistics, charts and insights to help you stay on top of the space industry.